Asheboro, NC

9:07 AM EDT on July 29, 2016 (GMT -0400)
Asheboro Municipal

Weather History for KHBI - May, 2014

Change the Weather History Date:

Sunday, May 4, 2014

  Actual Average Record
Temperature  
Mean Temperature 65 °F -  
Max Temperature 83 °F 75 °F 93 °F (1938)
Min Temperature 47 °F 51 °F 36 °F (1971)
Growing Degree Days 15 (Base 50)    
Moisture  
Dew Point 47 °F    
Average Humidity 53    
Maximum Humidity 94    
Minimum Humidity 26    
Precipitation  
Precipitation 0.00 in - - ()
Sea Level Pressure  
Sea Level Pressure 29.97 in    
Wind  
Wind Speed 4 mph (SW)    
Max Wind Speed 10 mph    
Max Gust Speed 22 mph    
Visibility 10 miles    
Events      
Averages and records for this station are not official NWS values.
T = Trace of Precipitation, MM = Missing Value Source: NWS Daily Summary

Daily Weather History Graph

Daily Weather History Graph

Search for Another Location

Airport or City:

Trip Planner

Search our weather history database for the weather conditions in past years. The results will help you decide how hot, cold, wet, or windy it might be!

Date:

Astronomy

May. 04, 2014 Rise Set
Actual Time 6:24 AM EDT 8:08 PM EDT
Civil Twilight 5:56 AM EDT 8:36 PM EDT
Nautical Twilight 5:23 AM EDT 9:09 PM EDT
Astronomical Twilight 4:48 AM EDT 9:45 PM EDT
Moon 10:47 AM EDT (5/4) 12:11 AM EDT (5/4)
Length of Visible Light 14h 39m
Length of Day
13h 44m
Waxing Crescent, 27% of the Moon is Illuminated
May 4
Waxing Crescent
May 6
First Quarter
May 14
Full
May 21
Last Quarter
May 28
New

Hourly Weather History & Observations

Time (EDT) Temp. Dew Point Humidity Pressure Visibility Wind Dir Wind Speed Gust Speed Precip Events Conditions
12:15 AM 59.2 °F 44.6 °F 58% 29.98 in 10.0 mi SSW 4.6 mph - N/A   Clear
12:35 AM 57.9 °F 45.3 °F 63% 29.98 in 10.0 mi South 4.6 mph - N/A   Clear
12:55 AM 56.3 °F 45.3 °F 67% 29.99 in 10.0 mi SSW 4.6 mph - N/A   Clear
1:15 AM 58.1 °F 44.6 °F 61% 29.99 in 10.0 mi SSW 4.6 mph - N/A   Clear
1:35 AM 58.5 °F 44.6 °F 60% 29.99 in 10.0 mi SSW 4.6 mph - N/A   Clear
1:50 AM 58.6 °F 44.6 °F 60% 29.99 in 10.0 mi SSW 4.6 mph - N/A   Clear
2:15 AM 57.6 °F 44.8 °F 62% 29.99 in 10.0 mi Calm Calm - N/A   Clear
2:35 AM 54.1 °F 45.5 °F 73% 29.99 in 10.0 mi Calm Calm - N/A   Clear
2:55 AM 53.8 °F 45.5 °F 74% 29.99 in 10.0 mi Calm Calm - N/A   Clear
3:15 AM 52.2 °F 45.7 °F 79% 29.99 in 10.0 mi Calm Calm - N/A   Clear
3:35 AM 51.1 °F 45.7 °F 82% 30.00 in 10.0 mi Calm Calm - N/A   Clear
3:55 AM 50.7 °F 45.7 °F 83% 30.00 in 10.0 mi Calm Calm - N/A   Clear
4:15 AM 50.2 °F 45.5 °F 84% 30.00 in 10.0 mi Calm Calm - N/A   Clear
4:35 AM 50.0 °F 45.7 °F 85% 30.00 in 10.0 mi Calm Calm - N/A   Clear
4:55 AM 50.0 °F 45.7 °F 85% 30.00 in 10.0 mi Calm Calm - N/A   Clear
5:15 AM 49.3 °F 45.5 °F 87% 30.01 in 10.0 mi Calm Calm - N/A   Clear
5:35 AM 48.4 °F 45.5 °F 90% 30.01 in 10.0 mi Calm Calm - N/A   Clear
5:55 AM 47.8 °F 45.5 °F 92% 30.02 in 10.0 mi Calm Calm - N/A   Clear
6:15 AM 47.7 °F 45.1 °F 91% 30.02 in 10.0 mi Calm Calm - N/A   Clear
6:35 AM 47.5 °F 45.3 °F 92% 30.04 in 10.0 mi Calm Calm - N/A   Clear
6:55 AM 47.3 °F 45.5 °F 93% 30.04 in 10.0 mi Calm Calm - N/A   Clear
7:15 AM 48.0 °F 46.4 °F 94% 30.04 in 10.0 mi Calm Calm - N/A   Clear
7:35 AM 49.6 °F 46.8 °F 90% 30.04 in 10.0 mi Calm Calm - N/A   Clear
7:55 AM 52.2 °F 48.4 °F 87% 30.04 in 10.0 mi Calm Calm - N/A   Clear
8:15 AM 54.1 °F 49.5 °F 84% 30.05 in 10.0 mi Calm Calm - N/A   Clear
8:35 AM 58.1 °F 49.3 °F 72% 30.05 in 10.0 mi Calm Calm - N/A   Clear
8:55 AM 60.6 °F 48.9 °F 65% 30.05 in 10.0 mi Calm Calm - N/A   Clear
9:15 AM 62.6 °F 48.0 °F 59% 30.05 in 10.0 mi Calm Calm - N/A   Clear
9:35 AM 64.4 °F 46.4 °F 52% 30.04 in 10.0 mi Calm Calm - N/A   Clear
9:55 AM 66.0 °F 46.0 °F 48% 30.05 in 10.0 mi Calm Calm - N/A   Clear
10:15 AM 67.8 °F 46.9 °F 47% 30.05 in 10.0 mi Calm Calm - N/A   Clear
10:35 AM 68.9 °F 46.0 °F 44% 30.04 in 10.0 mi SSW 6.9 mph - N/A   Clear
10:55 AM 70.7 °F 45.9 °F 41% 30.04 in 10.0 mi SW 6.9 mph - N/A   Clear
11:15 AM 72.0 °F 45.1 °F 38% 30.04 in 10.0 mi SW 6.9 mph - N/A   Clear
11:35 AM 72.7 °F 43.5 °F 35% 30.03 in 10.0 mi SW 8.1 mph - N/A   Clear
11:55 AM 74.3 °F 43.3 °F 33% 30.01 in 10.0 mi WSW 5.8 mph - N/A   Clear
12:15 PM 74.3 °F 43.2 °F 33% 30.01 in 10.0 mi West 8.1 mph - N/A   Clear
12:35 PM 76.1 °F 43.9 °F 32% 30.01 in 10.0 mi West 10.4 mph 20.7 mph N/A   Clear
12:55 PM 76.5 °F 43.5 °F 31% 29.99 in 10.0 mi WSW 8.1 mph 16.1 mph N/A   Clear
1:15 PM 77.5 °F 43.3 °F 30% 29.98 in 10.0 mi SW 8.1 mph 17.3 mph N/A   Clear
1:35 PM 78.4 °F 44.4 °F 30% 29.97 in 10.0 mi WSW 10.4 mph 16.1 mph N/A   Clear
1:55 PM 79.0 °F 43.9 °F 29% 29.96 in 10.0 mi West 9.2 mph 17.3 mph N/A   Clear
2:15 PM 79.0 °F 44.8 °F 30% 29.96 in 10.0 mi West 8.1 mph 20.7 mph N/A   Clear
2:35 PM 79.2 °F 44.1 °F 29% 29.95 in 10.0 mi WSW 8.1 mph 21.9 mph N/A   Clear
2:55 PM 80.6 °F 45.3 °F 29% 29.94 in 10.0 mi WSW 9.2 mph 21.9 mph N/A   Clear
3:15 PM 80.6 °F 44.6 °F 28% 29.93 in 10.0 mi West 6.9 mph 17.3 mph N/A   Clear
3:35 PM 81.5 °F 45.5 °F 28% 29.92 in 10.0 mi WSW 9.2 mph 19.6 mph N/A   Clear
3:55 PM 81.5 °F 45.3 °F 28% 29.91 in 10.0 mi SW 6.9 mph - N/A   Clear
4:15 PM 82.4 °F 44.4 °F 26% 29.90 in 10.0 mi WSW 8.1 mph 17.3 mph N/A   Clear
4:35 PM 82.6 °F 44.6 °F 26% 29.89 in 10.0 mi WSW 6.9 mph 18.4 mph N/A   Clear
4:55 PM 83.1 °F 44.6 °F 26% 29.89 in 10.0 mi SW 10.4 mph 18.4 mph N/A   Clear
5:15 PM 83.3 °F 45.7 °F 27% 29.88 in 10.0 mi West 6.9 mph - N/A   Clear
5:35 PM 83.5 °F 46.0 °F 27% 29.88 in 10.0 mi WSW 8.1 mph 16.1 mph N/A   Clear
5:55 PM 83.5 °F 45.7 °F 27% 29.87 in 10.0 mi WSW 9.2 mph 17.3 mph N/A   Clear
6:15 PM 83.7 °F 46.6 °F 27% 29.87 in 10.0 mi SSW 10.4 mph - N/A   Clear
6:35 PM 83.1 °F 47.5 °F 29% 29.87 in 10.0 mi SW 9.2 mph - N/A   Clear
6:55 PM 82.0 °F 48.9 °F 31% 29.88 in 10.0 mi WSW 3.5 mph - N/A   Clear
7:15 PM 81.3 °F 48.6 °F 32% 29.88 in 10.0 mi Calm Calm - N/A   Clear
7:35 PM 80.8 °F 44.6 °F 28% 29.89 in 10.0 mi WSW 3.5 mph - N/A   Clear
7:55 PM 79.3 °F 48.4 °F 34% 29.89 in 10.0 mi Calm Calm - N/A   Clear
8:15 PM 75.2 °F 53.1 °F 46% 29.89 in 10.0 mi SSW 3.5 mph - N/A   Clear
8:35 PM 72.9 °F 54.1 °F 52% 29.90 in 10.0 mi South 4.6 mph - N/A   Clear
8:55 PM 69.3 °F 53.8 °F 58% 29.91 in 10.0 mi South 3.5 mph - N/A   Clear
9:15 PM 68.5 °F 53.2 °F 58% 29.91 in 10.0 mi South 3.5 mph - N/A   Clear
9:35 PM 69.3 °F 52.7 °F 56% 29.92 in 10.0 mi South 4.6 mph - N/A   Clear
9:55 PM 70.0 °F 52.2 °F 53% 29.92 in 10.0 mi South 4.6 mph - N/A   Clear
10:15 PM 71.2 °F 51.1 °F 49% 29.92 in 10.0 mi SSW 4.6 mph - N/A   Clear
10:35 PM 70.7 °F 50.2 °F 48% 29.92 in 10.0 mi SSW 5.8 mph - N/A   Clear
10:55 PM 70.2 °F 50.0 °F 49% 29.92 in 10.0 mi South 4.6 mph - N/A   Clear
11:15 PM 69.3 °F 50.0 °F 50% 29.92 in 10.0 mi South 4.6 mph - N/A   Clear
11:35 PM 68.4 °F 50.4 °F 53% 29.93 in 10.0 mi SSW 4.6 mph - N/A   Clear
11:55 PM 66.6 °F 50.7 °F 57% 29.93 in 10.0 mi Calm Calm - N/A   Clear